Location: Newark
(23.1300°N, 73.6109°E)
Time: 21:20:46
(UTC+00:00)

Hubble Space Telescope - Visible Passes

Search period start: 09 April 2020 00:00
Search period end: 19 April 2020 00:00
Orbit: 536 x 540 km, 28.5° (Epoch: 09 April)

Date Brightness Start Highest point End Pass type
(mag) Time Alt. Az. Time Alt. Az. Time Alt. Az.
09 Apr 1.5 14:06:54 10° W 14:10:53 48° N 14:14:37 12° ENE visible
09 Apr 3.4 15:48:34 10° WNW 15:49:58 19° WNW 15:49:58 19° WNW visible
10 Apr 1.7 13:56:22 10° W 14:00:19 43° N 14:04:15 10° ENE visible
10 Apr 2.9 15:37:58 10° WNW 15:40:01 25° NW 15:40:01 25° NW visible
11 Apr 1.8 13:45:50 10° WNW 13:49:44 40° N 13:53:38 10° ENE visible
11 Apr 2.4 15:27:21 10° WNW 15:30:00 32° NW 15:30:00 32° NW visible
12 Apr 1.8 15:16:43 10° WNW 15:19:58 42° NNW 15:19:58 42° NNW visible
13 Apr 1.2 15:06:04 10° WNW 15:09:55 54° N 15:09:55 54° N visible
14 Apr 0.8 14:55:24 10° WNW 14:59:30 64° NNE 14:59:52 60° NE visible
15 Apr 0.7 14:44:45 10° WNW 14:48:52 78° NNE 14:49:50 51° E visible
16 Apr 0.7 14:34:07 10° WNW 14:38:14 86° SSW 14:39:49 36° ESE visible
17 Apr 0.9 14:23:29 10° WNW 14:27:35 68° SSW 14:29:50 25° ESE visible
18 Apr 1.2 14:12:54 10° W 14:16:55 52° SSW 14:19:53 17° SE visible
